GW4074 Weather Reports


Display with metric or nautical units.
time (UTC)temp
F
wind
direction
speed
MPH
gust
MPH
rain 1hr
in
rain 24hr
in
rain mn
in
humidity
%
barometer
mb
20260502163111 59 323 2.0 5.0 0.00 0.00 0.00 70 1017.5
20260502162608 60 14 2.0 7.0 0.00 0.00 0.00 67 1017.5
20260502162106 60 122 1.0 3.0 0.00 0.00 0.00 68 1017.5
20260502161603 60 277 0.0 4.0 0.00 0.00 0.00 68 1017.4
20260502161100 60 3 3.0 5.0 0.00 0.00 0.00 66 1017.3
20260502160558 60 68 3.0 5.0 0.00 0.00 0.00 66 1017.1
20260502152010 59 80 1.0 3.0 0.00 0.00 0.00 69 1017.5
20260502151506 59 357 1.0 6.0 0.00 0.00 0.00 68 1017.5
20260502151004 59 126 5.0 6.0 0.00 0.00 0.00 68 1017.2
20260502150501 59 99 2.0 4.0 0.00 0.00 0.00 68 1017.2
20260502130346 55 54 2.0 4.0 0.00 0.00 0.00 72 1016.8
20260502123329 50 24 3.0 4.0 0.00 0.00 0.00 85 1017.0
20260502122826 51 18 2.0 3.0 0.00 0.00 0.00 82 1016.9
20260502122321 52 14 2.0 2.0 0.00 0.00 0.00 78 1017.0
20260502121821 53 46 2.0 3.0 0.00 0.00 0.00 76 1016.9
20260502121317 54 113 2.0 2.0 0.00 0.00 0.00 71 1016.8
20260502120814 54 9 2.0 2.0 0.00 0.00 0.00 69 1017.0
20260502120311 53 23 3.0 3.0 0.00 0.00 0.00 71 1016.9
20260502115809 54 356 2.0 2.0 0.00 0.00 0.00 70 1017.0
20260502115306 55 13 1.0 2.0 0.00 0.00 0.00 68 1016.8
20260502114801 56 119 3.0 3.0 0.00 0.00 0.00 64 1017.0
20260502114258 56 87 1.0 2.0 0.00 0.00 0.00 65 1016.8
20260502113755 55 83 0.0 2.0 0.00 0.00 0.00 66 1016.8
20260502113253 54 43 2.0 3.0 0.00 0.00 0.00 69 1016.6
20260502112751 54 20 2.0 3.0 0.00 0.00 0.00 69 1016.5
20260502112248 54 24 2.0 2.0 0.00 0.00 0.00 69 1016.5
20260502111745 54 35 2.0 3.0 0.00 0.00 0.00 70 1016.4
20260502111243 54 42 2.0 2.0 0.00 0.00 0.00 68 1016.6
20260502110740 54 110 2.0 2.0 0.00 0.00 0.00 70 1016.5
20260502110238 53 51 2.0 3.0 0.00 0.00 0.00 72 1016.3
20260502105736 52 32 2.0 3.0 0.00 0.00 0.00 76 1016.8
20260502105232 51 11 3.0 3.0 0.00 0.00 0.00 81 1016.5
20260502104730 52 7 2.0 2.0 0.00 0.00 0.00 78 1016.7
20260502104227 53 139 3.0 3.0 0.00 0.00 0.00 79 1016.6
20260502103725 53 120 3.0 3.0 0.00 0.00 0.00 73 1016.7
20260502103222 53 111 2.0 2.0 0.00 0.00 0.00 73 1016.8
20260502102719 54 67 2.0 2.0 0.00 0.00 0.00 74 1016.6
20260502102215 54 144 2.0 2.0 0.00 0.00 0.00 70 1016.7
20260502101714 54 100 2.0 2.0 0.00 0.00 0.00 70 1016.5
20260502101212 54 25 1.0 1.0 0.00 0.00 0.00 72 1016.6
20260502100709 53 64 2.0 2.0 0.00 0.00 0.00 74 1016.5
20260502100208 54 32 2.0 2.0 0.00 0.00 0.00 75 1016.6
20260502091142 57 65 1.0 1.0 0.00 0.00 0.00 66 1016.6
20260502090638 57 89 0.0 1.0 0.00 0.00 0.00 67 1016.6
20260502090136 57 53 1.0 1.0 0.00 0.00 0.00 66 1016.5
20260502071533 56 44 1.0 2.0 0.00 0.00 0.00 77 1016.5
20260502071031 55 130 0.0 1.0 0.00 0.00 0.00 79 1016.5
20260502070529 54 119 0.0 2.0 0.00 0.00 0.00 83 1016.5
20260502070027 54 162 3.0 4.0 0.00 0.00 0.00 83 1016.5
20260502065526 54 147 2.0 3.0 0.00 0.00 0.00 82 1016.4
20260502065023 53 108 1.0 2.0 0.00 0.00 0.00 84 1016.4
20260502064521 53 95 2.0 2.0 0.00 0.00 0.00 86 1016.3
20260502064018 53 26 2.0 3.0 0.00 0.00 0.00 85 1016.3
20260502063515 54 136 2.0 3.0 0.00 0.00 0.00 84 1016.5
20260502063013 54 134 2.0 2.0 0.00 0.00 0.00 83 1016.3
20260502062510 55 113 0.0 3.0 0.00 0.00 0.00 82 1016.2
20260502062009 55 145 3.0 3.0 0.00 0.00 0.00 81 1016.2
20260502061506 55 134 2.0 2.0 0.00 0.00 0.00 81 1016.2
20260502061003 55 117 2.0 3.0 0.00 0.00 0.00 80 1016.3
20260502060457 56 137 2.0 2.0 0.00 0.00 0.00 80 1016.1
20260502055954 56 150 3.0 3.0 0.00 0.00 0.00 79 1016.2
20260502055452 55 87 1.0 1.0 0.00 0.00 0.00 80 1016.2
20260502054946 55 118 2.0 2.0 0.00 0.00 0.00 81 1016.2
20260502054444 55 157 2.0 3.0 0.00 0.00 0.00 80 1016.2
20260502053941 56 131 2.0 2.0 0.00 0.00 0.00 78 1016.0
20260502053437 57 89 0.0 3.0 0.00 0.00 0.00 78 1016.0
20260502052935 57 135 2.0 4.0 0.00 0.00 0.00 76 1016.1
20260502052433 57 116 3.0 3.0 0.00 0.00 0.00 76 1016.1
20260502051932 57 107 3.0 4.0 0.00 0.00 0.00 75 1016.0
20260502051429 58 119 3.0 3.0 0.00 0.00 0.00 73 1015.9
20260502050926 60 145 0.0 4.0 0.00 0.00 0.00 69 1015.8
20260502050423 60 94 1.0 2.0 0.00 0.00 0.00 68 1015.7
20260502045920 60 120 2.0 2.0 0.00 0.00 0.00 68 1016.0
20260502045416 61 89 0.0 2.0 0.00 0.00 0.00 66 1015.9
20260502044914 60 269 0.0 3.0 0.00 0.00 0.00 67 1015.9
20260502044409 60 138 2.0 2.0 0.00 0.00 0.00 67 1015.8
20260502043906 60 126 1.0 2.0 0.00 0.00 0.00 67 1015.8
20260502043404 59 145 2.0 3.0 0.00 0.00 0.00 69 1015.6
20260502042903 60 126 4.0 4.0 0.00 0.00 0.00 69 1015.8
20260502042401 59 116 3.0 5.0 0.00 0.00 0.00 70 1015.7
20260502041858 59 110 3.0 4.0 0.00 0.00 0.00 70 1015.7
20260502041355 60 230 0.0 2.0 0.00 0.00 0.00 68 1015.7
20260502040853 59 136 3.0 3.0 0.00 0.00 0.00 70 1015.6
20260502040349 60 119 4.0 4.0 0.00 0.00 0.00 70 1015.6
20260502035845 61 153 2.0 2.0 0.00 0.00 0.00 65 1015.5
20260502035342 61 167 3.0 4.0 0.00 0.00 0.00 65 1015.5
20260502034839 61 55 0.0 2.0 0.00 0.00 0.00 65 1015.4
20260502034338 61 129 0.0 1.0 0.00 0.00 0.00 65 1015.5
20260502033836 61 28 1.0 3.0 0.00 0.00 0.00 66 1015.3
20260502033333 62 85 2.0 2.0 0.00 0.00 0.00 65 1015.4
20260502032830 62 130 4.0 4.0 0.00 0.00 0.00 64 1015.1
20260502032326 62 6 4.0 6.0 0.00 0.00 0.00 64 1014.8
20260502031824 62 232 1.0 4.0 0.00 0.00 0.00 64 1014.9
20260502031322 62 0 0.0 2.0 0.00 0.00 0.00 64 1015.1
20260502030820 62 89 0.0 2.0 0.00 0.00 0.00 64 1015.1
20260502030318 62 309 0.0 2.0 0.00 0.00 0.00 65 1015.1
20260502025815 62 17 0.0 2.0 0.00 0.00 0.00 64 1015.2
20260502025313 62 324 1.0 4.0 0.00 0.00 0.00 64 1015.1
20260502024810 62 25 2.0 4.0 0.00 0.00 0.00 63 1015.0
20260502024308 62 9 2.0 2.0 0.00 0.00 0.00 63 1014.9
20260502023806 62 331 2.0 4.0 0.00 0.00 0.00 63 1014.9
20260502023303 62 326 1.0 5.0 0.00 0.00 0.00 62 1014.8
20260502022800 62 32 1.0 4.0 0.00 0.00 0.00 60 1014.8
20260502022257 63 343 2.0 4.0 0.00 0.00 0.00 59 1015.1
20260502021754 63 357 2.0 4.0 0.00 0.00 0.00 58 1014.7
20260502021251 63 65 1.0 5.0 0.00 0.00 0.00 57 1014.8
20260502020748 63 15 2.0 6.0 0.00 0.00 0.00 57 1014.7
20260502020246 63 332 2.0 5.0 0.00 0.00 0.00 56 1014.8
20260502015743 63 348 5.0 5.0 0.00 0.00 0.00 54 1014.8
20260502015239 63 348 4.0 5.0 0.00 0.00 0.00 52 1014.7
20260502014737 63 355 3.0 4.0 0.00 0.00 0.00 54 1014.8
20260502014233 63 321 4.0 5.0 0.00 0.00 0.00 54 1015.0
20260502013730 63 8 1.0 5.0 0.00 0.00 0.00 54 1014.9
20260502013225 64 349 4.0 4.0 0.00 0.00 0.00 52 1014.8
20260502012722 64 340 3.0 3.0 0.00 0.00 0.00 52 1014.8
20260502012220 65 359 2.0 4.0 0.00 0.00 0.00 49 1015.0
20260502011717 65 202 0.0 4.0 0.00 0.00 0.00 50 1015.0
20260502011213 65 342 3.0 4.0 0.00 0.00 0.00 50 1015.0
20260502010711 65 311 1.0 4.0 0.00 0.00 0.00 52 1014.9
20260502010207 65 338 2.0 4.0 0.00 0.00 0.00 52 1015.0
20260502005704 66 3 4.0 6.0 0.00 0.00 0.00 50 1015.2
20260502005202 66 86 3.0 6.0 0.00 0.00 0.00 49 1015.0
20260502004658 67 324 2.0 4.0 0.00 0.00 0.00 51 1015.1
20260502004154 66 15 3.0 8.0 0.00 0.00 0.00 49 1015.1
20260502003652 66 306 2.0 4.0 0.00 0.00 0.00 50 1015.0
20260502003149 66 296 0.0 4.0 0.00 0.00 0.00 50 1015.1
20260502002645 66 16 3.0 4.0 0.00 0.00 0.00 51 1015.3
20260502002143 64 33 4.0 5.0 0.00 0.00 0.00 52 1015.2
20260502001640 64 347 3.0 7.0 0.00 0.00 0.00 52 1015.1
20260502001138 65 332 4.0 5.0 0.00 0.00 0.00 51 1015.4
20260502000635 64 14 2.0 4.0 0.00 0.00 0.00 53 1015.2
20260502000133 65 2 2.0 6.0 0.00 0.00 0.00 51 1015.3
20260501235629 65 327 2.0 6.0 0.00 0.00 0.00 52 1015.2
20260501235125 66 348 4.0 6.0 0.00 0.00 0.00 53 1015.1
20260501234620 67 12 4.0 8.0 0.00 0.00 0.00 53 1015.1
20260501234118 66 353 4.0 5.0 0.00 0.00 0.00 55 1015.3
20260501233616 66 269 0.0 6.0 0.00 0.00 0.00 54 1015.2
20260501233113 65 359 4.0 4.0 0.00 0.00 0.00 55 1015.4
20260501232609 66 7 3.0 4.0 0.00 0.00 0.00 54 1015.4
20260501232107 67 326 3.0 4.0 0.00 0.00 0.00 53 1015.4
20260501231604 67 323 4.0 7.0 0.00 0.00 0.00 53 1015.6
20260501231102 67 359 3.0 6.0 0.00 0.00 0.00 52 1015.5
20260501230600 68 88 2.0 5.0 0.00 0.00 0.00 51 1015.6
20260501230058 68 286 1.0 7.0 0.00 0.00 0.00 51 1015.5
20260501225555 67 339 4.0 6.0 0.00 0.00 0.00 51 1015.6
20260501225051 67 281 3.0 9.0 0.00 0.00 0.00 51 1015.7
20260501224549 66 33 2.0 7.0 0.00 0.00 0.00 52 1015.8
20260501224046 67 339 3.0 5.0 0.00 0.00 0.00 52 1015.6
20260501223542 67 3 6.0 7.0 0.00 0.00 0.00 50 1015.7
20260501223038 67 337 3.0 6.0 0.00 0.00 0.00 53 1015.9
20260501222535 66 0 2.0 10.0 0.00 0.00 0.00 52 1015.9
20260501222032 66 53 2.0 7.0 0.00 0.00 0.00 52 1015.9
20260501221528 66 351 4.0 6.0 0.00 0.00 0.00 55 1015.8
20260501221026 66 325 3.0 8.0 0.00 0.00 0.00 56 1016.0
20260501220524 66 326 2.0 7.0 0.00 0.00 0.00 56 1016.1
20260501220020 66 313 3.0 7.0 0.00 0.00 0.00 56 1016.0
20260501215516 66 5 2.0 6.0 0.00 0.00 0.00 57 1016.2
20260501215007 66 354 5.0 7.0 0.00 0.00 0.00 57 1016.1
20260501214502 66 5 3.0 8.0 0.00 0.00 0.00 55 1016.2
20260501213958 67 337 4.0 6.0 0.00 0.00 0.00 55 1016.1
20260501213455 67 8 3.0 5.0 0.00 0.00 0.00 53 1016.4
20260501212956 68 296 2.0 5.0 0.00 0.00 0.00 53 1016.0
20260501212453 68 354 2.0 4.0 0.00 0.00 0.00 54 1016.4
20260501211950 67 327 2.0 5.0 0.00 0.00 0.00 53 1016.4
20260501211447 69 3 0.0 4.0 0.00 0.00 0.00 52 1016.2
20260501210944 69 36 3.0 5.0 0.00 0.00 0.00 54 1016.2
20260501210441 68 76 2.0 4.0 0.00 0.00 0.00 53 1016.1
20260501205937 68 93 2.0 5.0 0.00 0.00 0.00 55 1016.4
20260501205434 68 311 3.0 4.0 0.00 0.00 0.00 54 1016.2
20260501204932 69 127 2.0 3.0 0.00 0.00 0.00 53 1016.3
20260501204427 69 44 2.0 5.0 0.00 0.00 0.00 54 1016.3
20260501203924 69 42 2.0 4.0 0.00 0.00 0.00 55 1016.2
20260501203421 68 15 3.0 4.0 0.00 0.00 0.00 60 1016.2
20260501202918 68 101 4.0 4.0 0.00 0.00 0.00 59 1016.2
20260501202415 66 118 2.0 5.0 0.00 0.00 0.00 65 1016.3
20260501201912 65 59 0.0 2.0 0.00 0.00 0.00 66 1016.4
20260501201409 64 96 2.0 2.0 0.00 0.00 0.00 68 1016.2
20260501200905 61 122 4.0 6.0 0.00 0.00 0.00 72 1016.5
20260501200402 63 124 6.0 7.0 0.00 0.00 0.00 71 1016.3
20260501195900 62 125 4.0 7.0 0.00 0.00 0.00 71 1016.6
20260501195355 64 104 0.0 5.0 0.00 0.00 0.00 69 1016.4
20260501194852 63 111 2.0 4.0 0.00 0.00 0.00 70 1016.6
20260501194348 61 123 3.0 5.0 0.00 0.00 0.00 72 1016.5
20260501193844 62 131 4.0 5.0 0.00 0.00 0.00 71 1016.6
20260501193343 64 113 3.0 6.0 0.00 0.00 0.00 69 1016.3
20260501192840 63 121 2.0 5.0 0.00 0.00 0.00 68 1016.5
20260501192337 64 128 3.0 5.0 0.00 0.00 0.00 68 1016.6
20260501191834 64 126 4.0 5.0 0.00 0.00 0.00 69 1016.8
20260501191331 64 120 2.0 3.0 0.00 0.00 0.00 69 1016.5
20260501190828 63 178 1.0 5.0 0.00 0.00 0.00 71 1016.7
20260501190324 63 139 2.0 6.0 0.00 0.00 0.00 70 1016.6
20260501185819 62 121 5.0 6.0 0.00 0.00 0.00 71 1016.8
20260501185316 62 138 4.0 5.0 0.00 0.00 0.00 71 1016.8
20260501184811 61 142 3.0 6.0 0.00 0.00 0.00 72 1016.7
20260501184307 64 124 2.0 4.0 0.00 0.00 0.00 69 1016.9
20260501183803 63 186 2.0 4.0 0.00 0.00 0.00 70 1016.9
20260501183301 62 122 3.0 5.0 0.00 0.00 0.00 72 1017.0
20260501182751 62 126 2.0 6.0 0.00 0.00 0.00 71 1016.9
20260501182248 61 131 3.0 6.0 0.00 0.00 0.00 73 1017.0
20260501181745 63 132 3.0 5.0 0.00 0.00 0.00 69 1017.0
20260501181243 63 159 4.0 5.0 0.00 0.00 0.00 69 1016.9
20260501180740 63 152 4.0 5.0 0.00 0.00 0.00 69 1016.9
20260501180236 63 149 3.0 5.0 0.00 0.00 0.00 67 1017.1
20260501175733 62 156 2.0 3.0 0.00 0.00 0.00 68 1017.0
20260501175230 62 150 3.0 4.0 0.00 0.00 0.00 67 1016.9
20260501174726 62 119 4.0 4.0 0.00 0.00 0.00 67 1017.0
20260501174224 63 132 3.0 5.0 0.00 0.00 0.00 68 1017.1
20260501173722 62 130 2.0 5.0 0.00 0.00 0.00 67 1017.0
20260501173219 61 121 2.0 5.0 0.00 0.00 0.00 69 1017.2
20260501172714 61 169 2.0 4.0 0.00 0.00 0.00 67 1017.0
20260501172209 60 123 2.0 5.0 0.00 0.00 0.00 71 1017.2
20260501171705 61 169 4.0 4.0 0.00 0.00 0.00 68 1017.0
20260501171202 59 108 2.0 3.0 0.00 0.00 0.00 71 1017.2
20260501170659 59 173 0.0 4.0 0.00 0.00 0.00 72 1017.2
20260501170156 57 152 2.0 7.0 0.00 0.00 0.00 75 1017.1
20260501165653 57 157 3.0 5.0 0.00 0.00 0.00 77 1017.2
20260501165150 57 98 3.0 6.0 0.00 0.00 0.00 77 1017.3
20260501164649 56 135 2.0 4.0 0.00 0.00 0.00 78 1017.1
20260501164145 56 161 4.0 6.0 0.00 0.00 0.00 80 1017.3
20260501163641 56 131 2.0 4.0 0.00 0.00 0.00 79 1017.1